Location: Ammerl�gen
(47.2167°N, 9.6000°E)
Time: 09:03:36
(UTC+00:00)

SO-50 - Visible Passes

Search period start: 06 December 2021 00:00
Search period end: 16 December 2021 00:00
Orbit: 599 x 686 km, 64.6° (Epoch: 05 December)

Date Brightness Start Highest point End Pass type
(mag) Time Alt. Az. Time Alt. Az. Time Alt. Az.
06 Dec ? 17:08:51 10° WNW 17:12:01 17° WSW 17:15:11 10° SSW visible
07 Dec ? 05:48:29 10° ESE 05:48:52 10° ESE 05:49:15 10° ESE visible
08 Dec ? 06:09:34 10° SSE 06:13:09 24° ESE 06:16:49 10° ENE visible
08 Dec ? 16:17:30 10° WNW 16:21:23 25° WSW 16:25:19 10° SSW visible
09 Dec ? 16:44:20 10° W 16:45:43 11° WSW 16:47:06 10° WSW visible
10 Dec ? 05:19:44 10° SSE 05:22:33 16° ESE 05:25:24 10° ENE visible
11 Dec ? 05:42:50 10° S 05:46:57 36° ESE 05:51:11 10° NE visible
12 Dec ? 04:30:48 10° ESE 04:31:59 11° ESE 04:33:11 10° E visible
12 Dec ? 06:07:04 10° SSW 06:11:34 80° SE 06:16:15 10° NE visible
13 Dec ? 04:52:36 10° S 04:56:17 25° ESE 05:00:03 10° ENE visible
14 Dec ? 05:16:24 10° SSW 05:20:48 56° ESE 05:25:22 10° NE visible
15 Dec ? 04:02:42 10° SSE 04:05:40 17° ESE 04:08:42 10° ENE visible
15 Dec ? 05:41:03 10° SW 05:45:34 69° NW 05:50:15 10° NE visible
